When you browse on this site, cookies collect data to enhance your experience and personalize the content and advertising you see.
Visit our Privacy Policy to learn more. By continuing to use the site, you agree to this use of cookies and data.

Meteo pe oră la Dzieciolowo

Astăzi, 26 Septembrie, Sâmbătă

Timp Temperatura Precipitaţii Vânt Presiune Umiditate
00:00 +19°C° 0 mm 5 m/s 738 mmHg 72%
01:00 +17°C° 0 mm 5 m/s 738 mmHg 73%
02:00 +18°C° 0 mm 4 m/s 738 mmHg 70%
03:00 +17°C° 0 mm 5 m/s 738 mmHg 72%
04:00 +17°C° 0 mm 5 m/s 737 mmHg 74%
05:00 +16°C° 0 mm 5 m/s 737 mmHg 76%
06:00 +16°C° 0 mm 6 m/s 737 mmHg 75%
07:00 +17°C° 0 mm 6 m/s 737 mmHg 75%
08:00 +17°C° 0 mm 6 m/s 737 mmHg 76%
09:00 +18°C° 0 mm 7 m/s 737 mmHg 71%
10:00 +21°C° 0 mm 8 m/s 737 mmHg 66%
11:00 +22°C° 0 mm 8 m/s 738 mmHg 62%
12:00 +23°C° 0 mm 8 m/s 738 mmHg 57%
13:00 +24°C° 0 mm 9 m/s 737 mmHg 53%
14:00 +27°C° 0 mm 8 m/s 737 mmHg 50%
15:00 +26°C° 0 mm 8 m/s 737 mmHg 52%
16:00 +24°C° 0 mm 7 m/s 737 mmHg 55%
17:00 +24°C° 0 mm 6 m/s 737 mmHg 58%
18:00 +23°C° 0 mm 7 m/s 737 mmHg 58%
19:00 +22°C° 0 mm 7 m/s 738 mmHg 59%
20:00 +22°C° 0 mm 7 m/s 738 mmHg 60%
21:00 +21°C° 0 mm 7 m/s 738 mmHg 60%
22:00 +21°C° 0 mm 7 m/s 738 mmHg 61%
23:00 +20°C° 0 mm 7 m/s 738 mmHg 61%

Mâine, 27 Septembrie, Duminică

Timp Temperatura Precipitaţii Vânt Presiune Umiditate
00:00 +20°C° 0 mm 7 m/s 738 mmHg 61%
01:00 +20°C° 0 mm 7 m/s 738 mmHg 60%
02:00 +18°C° 0 mm 7 m/s 738 mmHg 59%
03:00 +18°C° 0 mm 7 m/s 738 mmHg 59%
04:00 +18°C° 0 mm 7 m/s 738 mmHg 59%
05:00 +18°C° 0 mm 7 m/s 738 mmHg 59%
06:00 +18°C° 0 mm 8 m/s 738 mmHg 58%
07:00 +18°C° 0 mm 8 m/s 738 mmHg 56%
08:00 +17°C° 0 mm 8 m/s 738 mmHg 55%
09:00 +17°C° 0 mm 8 m/s 738 mmHg 57%
10:00 +17°C° 0 mm 8 m/s 738 mmHg 58%
11:00 +17°C° 0 mm 8 m/s 738 mmHg 60%
12:00 +17°C° 0 mm 8 m/s 738 mmHg 60%
13:00 +18°C° 0 mm 8 m/s 739 mmHg 59%
14:00 +18°C° 0 mm 8 m/s 739 mmHg 59%
15:00 +18°C° 0.3 mm 8 m/s 739 mmHg 66%
16:00 +17°C° 0.3 mm 7 m/s 740 mmHg 73%
17:00 +16°C° 0.3 mm 7 m/s 740 mmHg 80%
18:00 +14°C° 0.5 mm 6 m/s 741 mmHg 82%
19:00 +13°C° 0.5 mm 6 m/s 741 mmHg 84%
20:00 +10°C° 0.5 mm 5 m/s 742 mmHg 86%
21:00 +10°C° 0 mm 5 m/s 743 mmHg 85%
22:00 +10°C° 0 mm 5 m/s 744 mmHg 84%
23:00 +10°C° 0 mm 5 m/s 745 mmHg 82%

Poimâine, 28 Septembrie, Luni

Timp Temperatura Precipitaţii Vânt Presiune Umiditate
00:00 +10°C° 0 mm 5 m/s 745 mmHg 83%
01:00 +10°C° 0 mm 5 m/s 746 mmHg 83%
02:00 +10°C° 0 mm 5 m/s 746 mmHg 84%
03:00 +10°C° 0 mm 4 m/s 746 mmHg 85%
04:00 +10°C° 0 mm 4 m/s 747 mmHg 86%
05:00 +8°C° 0 mm 4 m/s 747 mmHg 88%
06:00 +8°C° 0 mm 4 m/s 747 mmHg 86%
07:00 +9°C° 0 mm 5 m/s 748 mmHg 84%
08:00 +9°C° 0 mm 5 m/s 748 mmHg 82%
09:00 +10°C° 0 mm 5 m/s 748 mmHg 74%
10:00 +13°C° 0 mm 5 m/s 749 mmHg 66%
11:00 +15°C° 0 mm 5 m/s 749 mmHg 58%
12:00 +16°C° 0 mm 5 m/s 749 mmHg 55%
13:00 +17°C° 0 mm 5 m/s 749 mmHg 52%
14:00 +17°C° 0 mm 5 m/s 749 mmHg 48%
15:00 +18°C° 0 mm 4 m/s 749 mmHg 51%
16:00 +18°C° 0 mm 3 m/s 749 mmHg 53%
17:00 +17°C° 0 mm 2 m/s 749 mmHg 55%
18:00 +16°C° 0 mm 2 m/s 749 mmHg 59%
19:00 +14°C° 0 mm 2 m/s 749 mmHg 63%
20:00 +12°C° 0 mm 3 m/s 749 mmHg 67%
21:00 +11°C° 0 mm 3 m/s 749 mmHg 70%
22:00 +11°C° 0 mm 3 m/s 749 mmHg 74%
23:00 +11°C° 0 mm 3 m/s 749 mmHg 77%

29 Septembrie, Marţi

Timp Temperatura Precipitaţii Vânt Presiune Umiditate
00:00 +11°C° 0 mm 3 m/s 749 mmHg 80%
01:00 +10°C° 0 mm 3 m/s 749 mmHg 83%
02:00 +10°C° 0 mm 3 m/s 749 mmHg 86%
03:00 +10°C° 0 mm 3 m/s 748 mmHg 87%
04:00 +10°C° 0 mm 3 m/s 748 mmHg 89%
05:00 +10°C° 0 mm 3 m/s 748 mmHg 90%
06:00 +11°C° 0 mm 3 m/s 748 mmHg 87%
07:00 +11°C° 0 mm 3 m/s 748 mmHg 85%
08:00 +12°C° 0 mm 3 m/s 748 mmHg 83%
09:00 +13°C° 0 mm 3 m/s 748 mmHg 79%
10:00 +14°C° 0 mm 3 m/s 748 mmHg 75%
11:00 +16°C° 0 mm 3 m/s 748 mmHg 71%
12:00 +17°C° 0 mm 3 m/s 748 mmHg 68%
13:00 +18°C° 0 mm 2 m/s 748 mmHg 65%
14:00 +19°C° 0 mm 2 m/s 748 mmHg 62%
15:00 +19°C° 0 mm 2 m/s 748 mmHg 65%
16:00 +18°C° 0 mm 2 m/s 748 mmHg 68%
17:00 +19°C° 0 mm 1 m/s 748 mmHg 71%
18:00 +17°C° 0 mm 2 m/s 748 mmHg 73%
19:00 +16°C° 0 mm 2 m/s 748 mmHg 76%
20:00 +15°C° 0 mm 2 m/s 748 mmHg 78%
21:00 +15°C° 0 mm 2 m/s 748 mmHg 79%
22:00 +14°C° 0 mm 2 m/s 748 mmHg 80%
23:00 +14°C° 0 mm 2 m/s 748 mmHg 80%

30 Septembrie, Miercuri

Timp Temperatura Precipitaţii Vânt Presiune Umiditate
00:00 +14°C° 0 mm 2 m/s 748 mmHg 83%
01:00 +13°C° 0 mm 2 m/s 748 mmHg 85%
02:00 +12°C° 0 mm 2 m/s 748 mmHg 87%
03:00 +12°C° 0 mm 2 m/s 747 mmHg 90%
04:00 +12°C° 0 mm 2 m/s 747 mmHg 92%
05:00 +10°C° 0 mm 2 m/s 747 mmHg 94%
06:00 +11°C° 0 mm 3 m/s 747 mmHg 93%
07:00 +11°C° 0 mm 3 m/s 747 mmHg 91%
08:00 +12°C° 0 mm 4 m/s 747 mmHg 90%
09:00 +14°C° 0 mm 4 m/s 747 mmHg 82%
10:00 +15°C° 0 mm 4 m/s 747 mmHg 75%
11:00 +18°C° 0 mm 4 m/s 746 mmHg 67%
12:00 +19°C° 0 mm 5 m/s 746 mmHg 64%
13:00 +19°C° 0 mm 5 m/s 746 mmHg 61%
14:00 +20°C° 0 mm 5 m/s 745 mmHg 58%
15:00 +20°C° 0 mm 4 m/s 745 mmHg 60%
16:00 +19°C° 0 mm 4 m/s 745 mmHg 62%
17:00 +18°C° 0 mm 4 m/s 745 mmHg 64%
18:00 +18°C° 0 mm 4 m/s 745 mmHg 65%
19:00 +17°C° 0 mm 4 m/s 745 mmHg 66%
20:00 +16°C° 0 mm 3 m/s 745 mmHg 67%
21:00 +14°C° 0 mm 3 m/s 745 mmHg 68%
22:00 +14°C° 0 mm 3 m/s 745 mmHg 68%
23:00 +13°C° 0 mm 3 m/s 745 mmHg 68%

1 Octombrie, Joi

Timp Temperatura Precipitaţii Vânt Presiune Umiditate
00:00 +13°C° 0 mm 3 m/s 745 mmHg 68%
01:00 +13°C° 0 mm 3 m/s 745 mmHg 67%
02:00 +13°C° 0 mm 3 m/s 744 mmHg 67%
03:00 +13°C° 0 mm 3 m/s 744 mmHg 67%
04:00 +13°C° 0 mm 3 m/s 744 mmHg 66%
05:00 +12°C° 0 mm 3 m/s 744 mmHg 66%
06:00 +12°C° 0 mm 4 m/s 744 mmHg 66%
07:00 +12°C° 0 mm 4 m/s 744 mmHg 65%
08:00 +12°C° 0 mm 4 m/s 744 mmHg 64%
09:00 +12°C° 0 mm 4 m/s 744 mmHg 66%
10:00 +13°C° 0 mm 4 m/s 744 mmHg 68%
11:00 +13°C° 0 mm 5 m/s 744 mmHg 71%
12:00 +13°C° 0 mm 5 m/s 743 mmHg 70%
13:00 +14°C° 0 mm 5 m/s 743 mmHg 70%
14:00 +14°C° 0 mm 5 m/s 743 mmHg 69%
15:00 +13°C° 0.4 mm 5 m/s 743 mmHg 74%
16:00 +12°C° 0.4 mm 5 m/s 743 mmHg 79%
17:00 +10°C° 0.4 mm 6 m/s 743 mmHg 84%
18:00 +10°C° 0.2 mm 5 m/s 743 mmHg 85%
19:00 +10°C° 0.2 mm 5 m/s 743 mmHg 85%
20:00 +10°C° 0.2 mm 5 m/s 743 mmHg 86%
21:00 +10°C° 0.1 mm 5 m/s 742 mmHg 88%
22:00 +10°C° 0.1 mm 5 m/s 742 mmHg 89%
23:00 +10°C° 0.1 mm 5 m/s 742 mmHg 90%
Arată mai mult